Powrót do katalogu

HULIANWANG DIGUI-154

AktywnyŁącznośćLEO
NORAD 67530·PAYLOAD·🇨🇳 China

Wystrzelony Jan 19, 2026 z Wenchang Space Launch Site

Loading…

Następne Przeloty (najbliższe 24 godziny)

TLE

ŚwieżeSource: Space-Track

Epoka: Sep 14, 2026, 09:43 UTC

1 67530U 26013J   26257.40510424 -.00000106  00000-0  39009-4 0  9998
2 67530  50.0077  35.3228 0000823  85.5873 274.5093 13.29329349 31913

Śledź HULIANWANG DIGUI-154 w czasie rzeczywistym z AllMySat

Download on the App Store